Flag for Germany Weather past 2 weeks in Freital, Saxony, Germany

Now
59 °F

Scattered clouds.


Feels Like: 59 °F
Forecast: 51 / 78 °F
Wind: 5 mph from West

Location: Dresden-Klotzsche

Current Time: Jul 31, 2015 at 12:07:01 PM

Latest Report: Jul 31, 2015 at 10:00 AM


Visibility: 28 mi

Pressure: 30.11 "Hg

Humidity: 56%

Dew point: 44 °F

Location of FreitalLocation

Historic Weather in Freital — Graph

°F

Freital temperature yesterday

Maximum temperature yesterday: 67 °F (at 2:00 PM)
Minimum temperature yesterday: 53 °F (at 12:00 AM)
Average temperature yesterday: 60 °F

Past Weeks' High & Low Weather Summary

 TemperatureHumidityPressure
High92 °F (Jul 17, 6:00 PM)99% (Jul 23, 3:00 AM)30.11 "Hg (Jul 23, 3:00 AM)
Low52 °F (Jul 31, 4:00 AM)22% (Jul 17, 6:00 PM)29.59 "Hg (Jul 27, 3:00 PM)
Average70 °F61%29.87 "Hg
* Reported Jul 16 10:00 AM — Jul 31 10:00 AM, Freital, Weather by CustomWeather, © 2015

Note: Actual official high and low records may vary slightly from our data, if they occured in-between our weather recording intervals... More about our weather records

Advertising

Freital weather history for previous 24 hours

 ConditionsComfort  
Time TempWeatherWind HumidityBarometerVisibility
10:00 AM
Fri, Jul 31
59 °FScattered clouds.5 mph56%30.11 "Hg28 mi
9:00 AM56 °FScattered clouds.5 mph66%30.11 "Hg28 mi
8:00 AM55 °FScattered clouds.5 mph72%30.10 "Hg25 mi
7:00 AM52 °FPartly sunny.3 mph79%30.09 "Hg22 mi
4:00 AM52 °FClear.3 mph75%30.06 "Hg28 mi
3:00 AM54 °FClear.N/A71%30.04 "Hg28 mi
2:00 AM54 °FPassing clouds.2 mph69%30.04 "Hg28 mi
1:00 AM56 °FPassing clouds.5 mph64%30.03 "Hg28 mi
10:00 PM
Thu, Jul 30
60 °FPassing clouds.2 mph55%29.98 "Hg31 mi
9:00 PM61 °FPassing clouds.3 mph50%29.96 "Hg34 mi
8:00 PM65 °FScattered clouds.5 mph40%29.94 "Hg37 mi
7:00 PM65 °FPartly sunny.7 mph39%29.93 "Hg37 mi
6:00 PM67 °FPartly sunny.8 mph37%29.92 "Hg37 mi
4:00 PM66 °FPartly sunny.7 mph41%29.91 "Hg37 mi
3:00 PM66 °FPartly sunny.9 mph41%29.91 "Hg37 mi
2:00 PM67 °FScattered clouds.9 mph39%29.91 "Hg37 mi
1:00 PM65 °FScattered clouds.9 mph41%29.90 "Hg37 mi
12:00 PM64 °FScattered clouds.9 mph41%29.90 "Hg37 mi
Weather by CustomWeather, © 2015

See weather overviewHow to use our weather pages